User: anonymous   Login
Location: Unspecified
(0.0000°N, 0.0000°E)
Time: 02:06:53
(UTC+00:00)
Language:

USA 186 - Orbit

View from above orbital plane
View from above orbital plane
View from above satellite
View from above satellite

Ground track
Ground track

The orbit data is extracted from the following two-line orbital elements,

1 28888U 05042A   18020.72181239 0.00025000  00000-0  84189-4 0    03
2 28888  96.8599  61.5812 0159154  30.4299 329.5699 15.72619540    00
Epoch (UTC): 20 January 2018 17:19:24
Eccentricity: 0.0159154
inclination: 96.8599°
perigee height: 244 km
apogee height: 458 km
right ascension of ascending node: 61.5812°
argument of perigee: 30.4299°
revolutions per day: 15.72619540
mean anomaly at epoch: 329.5699°
orbit number at epoch: 0

The dashed part of the orbit path shows where the satellite is in the earth's shadow,  

DLR